Location: DaVinci Observatory
(43.1080°N, 78.6453°W)
Time: 19:46:12
(UTC-04:00)

Vanguard 2 - Visible Passes

Search period start: 19 October 2017 00:00
Search period end: 29 October 2017 00:00
Orbit: 554 x 2939 km, 32.9° (Epoch: 19 October)

Date Brightness Start Highest point End Pass type
(mag) Time Alt. Az. Time Alt. Az. Time Alt. Az.
19 Oct 12.1 06:31:55 10° SSE 06:37:59 13° SE 06:43:24 10° ESE visible
20 Oct 12.0 06:46:09 10° S 06:55:58 19° SSE 07:04:07 10° ESE visible
21 Oct 11.7 07:01:53 10° SSW 07:13:57 25° SSE 07:23:31 10° ESE visible
22 Oct 12.1 05:16:23 10° SSE 05:21:44 12° SE 05:26:47 10° ESE visible
23 Oct 11.9 05:29:44 10° S 05:39:34 18° SE 05:48:24 10° ESE visible
24 Oct 11.7 05:45:05 10° S 05:57:26 24° SE 06:08:09 10° E visible
25 Oct 11.5 06:01:18 10° SSW 06:15:19 30° SSE 06:27:11 10° E visible
26 Oct 11.9 04:14:27 10° SSE 04:22:59 15° SE 04:31:16 10° ESE visible
26 Oct 11.3 06:18:04 10° SSW 06:33:14 36° SSE 06:45:50 10° E visible
27 Oct 11.7 04:29:12 10° S 04:40:40 21° SE 04:51:40 10° E visible
27 Oct 11.1 06:35:13 10° SW 06:51:12 42° SSE 07:04:16 10° E visible
28 Oct 11.5 04:45:05 10° SSW 04:58:22 28° SE 05:11:03 10° E visible
28 Oct 11.0 06:52:39 10° SW 07:09:13 48° SSE 07:22:33 10° E visible
